This is the latest recevied weather packets stored in our database for station/object OE3AOG. If no packets are shown the sender has not sent any weather packets the latest 1 day(s).
| Time | Temp. | Humidity | Pressure | Rain* | Wind** | Luminosity | Snow |
|---|---|---|---|---|---|---|---|
| 1777994731 | 23.89° C | 37% | 1004.5 hPa | 0 mm | 3.58 m/s, 177° | 218 W/m² | - |
| 1777994123 | 23.89° C | 37% | 1004.6 hPa | 0 mm | 4.47 m/s, 167° | 212 W/m² | - |
| 1777993531 | 23.89° C | 36% | 1004.6 hPa | 0 mm | 3.58 m/s, 162° | 207 W/m² | - |
| 1777992916 | 23.89° C | 36% | 1004.7 hPa | 0 mm | 3.13 m/s, 168° | 163 W/m² | - |
| 1777992316 | 23.89° C | 36% | 1004.7 hPa | 0 mm | 4.02 m/s, 158° | 173 W/m² | - |
| 1777991724 | 25° C | 34% | 1004.5 hPa | 0 mm | 3.13 m/s, 161° | 208 W/m² | - |
| 1777991116 | 25° C | 32% | 1004.5 hPa | 0 mm | 4.02 m/s, 172° | 285 W/m² | - |
| 1777990524 | 25.56° C | 31% | 1004.4 hPa | 0 mm | 3.58 m/s, 161° | 349 W/m² | - |
| 1777989915 | 26.11° C | 29% | 1004.3 hPa | 0 mm | 4.02 m/s, 163° | 314 W/m² | - |
| 1777989323 | 26.11° C | 29% | 1004.5 hPa | 0 mm | 3.13 m/s, 160° | 455 W/m² | - |
| 1777988731 | 26.67° C | 29% | 1004.5 hPa | 0 mm | 2.68 m/s, 150° | 345 W/m² | - |
| 1777988116 | 26.67° C | 29% | 1004.5 hPa | 0 mm | 4.02 m/s, 185° | 549 W/m² | - |
| 1777987516 | 26.67° C | 29% | 1004.5 hPa | 0 mm | 3.58 m/s, 168° | 560 W/m² | - |
| 1777986924 | 26.67° C | 29% | 1004.7 hPa | 0 mm | 4.02 m/s, 173° | 575 W/m² | - |
| 1777986315 | 26.67° C | 27% | 1004.7 hPa | 0 mm | 3.58 m/s, 155° | 590 W/m² | - |
| 1777985723 | 26.67° C | 27% | 1004.8 hPa | 0 mm | 4.02 m/s, 152° | 602 W/m² | - |
| 1777985124 | 26.67° C | 26% | 1004.8 hPa | 0 mm | 3.58 m/s, 173° | 607 W/m² | - |
| 1777984516 | 27.22° C | 25% | 1004.9 hPa | 0 mm | 3.58 m/s, 166° | 619 W/m² | - |
| 1777983924 | 26.67° C | 25% | 1005 hPa | 0 mm | 4.02 m/s, 147° | 633 W/m² | - |
| 1777983331 | 27.22° C | 24% | 1005.1 hPa | 0 mm | 4.02 m/s, 163° | 635 W/m² | - |
| 1777982724 | 27.22° C | 24% | 1005.2 hPa | 0 mm | 4.02 m/s, 176° | 647 W/m² | - |
| 1777982116 | 27.22° C | 24% | 1005.4 hPa | 0 mm | 4.02 m/s, 178° | 651 W/m² | - |
| 1777981523 | 26.67° C | 25% | 1005.4 hPa | 0 mm | 4.02 m/s, 174° | 659 W/m² | - |
| 1777980916 | 27.22° C | 25% | 1005.6 hPa | 0 mm | 3.58 m/s, 172° | 668 W/m² | - |
| 1777980324 | 27.22° C | 26% | 1005.5 hPa | 0 mm | 2.68 m/s, 147° | 666 W/m² | - |
* Rain latest hour (hover to see other rain measurements)
** Current wind speed in m/s (hover to see current wind gust speed)